Regional Weather Roundup
Issued by NWS

Home | Current Version | Previous Version | Graphics & Text | Print | Product List | Glossary On
Versions: 1 2 3 4 5 6 7 8 9 10 11 12 13 14 15 16 17 18 19 20 21 22 23 24 25 26 27 28 29 30 31 32 33 34 35 36 37 38 39 40 41 42 43 44 45 46 47 48 49 50
000
ASUS43 KBIS 232110
RWRND

NORTH DAKOTA REGIONAL WEATHER ROUNDUP
NATIONAL WEATHER SERVICE BISMARCK ND
400 PM CDT TUE SEP 23 2014

NOTE: "FAIR" INDICATES FEW OR NO CLOUDS BELOW 12,000 FEET WITH NO
SIGNIFICANT WEATHER AND/OR OBSTRUCTIONS TO VISIBILITY.


NDZ001>003-009>011-017-232200-
NORTHWEST NORTH DAKOTA

CITY           SKY/WX    TMP DP  RH WIND       PRES   REMARKS
WILLISTON      SUNNY     83  54  36 VRB5      29.82F
MINOT          SUNNY     79  57  46 SE16G23   29.85S
MINOT AFB      SUNNY     79  58  48 S16       29.84S
$$

NDZ018>021-031>035-040>046-232200-
SOUTHWEST NORTH DAKOTA

CITY           SKY/WX    TMP DP  RH WIND       PRES   REMARKS
BISMARCK       CLOUDY    65  57  75 S13       29.93S
DICKINSON      SUNNY     80  57  45 S6        29.85F
GARRISON         N/A     75  59  57 S13       29.88S
HETTINGER ARPT SUNNY     78  56  46 S6        29.89F
$$

NDZ004>008-012>016-024-026-027-054-232200-
NORTHEAST NORTH DAKOTA

CITY           SKY/WX    TMP DP  RH WIND       PRES   REMARKS
GRAND FORKS    MOSUNNY   78  57  48 S20G25    29.97F
GRND FRKS AFB  MOSUNNY   76  57  52 S22G31    29.97F
DEVILS LAKE    MOSUNNY   73  55  53 S23G29    29.93S
$$

NDZ022-023-025-028>030-036>039-047>053-232200-
SOUTHEAST NORTH DAKOTA

CITY           SKY/WX    TMP DP  RH WIND       PRES   REMARKS
FARGO          SUNNY     74  47  38 S18G29    30.02F
JAMESTOWN      CLOUDY    64  55  72 S16       29.98R
$$



USA.gov is the U.S. government's official web portal to all federal, state and local government web resources and services.